Orbital Elements at Epoch 2459000.5 (2020-May-31.0) TDB
Reference: JPL 24 (heliocentric ecliptic J2000)
Element | Value | Uncertainty (1-sigma) | Units |
e | .1200013774390289 | 3.6102e-08 | |
a | 2.737943685958167 | 1.221e-08 | au |
q | 2.409386672292695 | 1.0075e-07 | au |
i | 5.859308367364475 | 4.888e-06 | deg |
node | 20.25798695485679 | 3.3068e-05 | deg |
peri | 47.3969607300744 | 3.837e-05 | deg |
M | 18.32821244775803 | 1.8457e-05 | deg |
tp | 2458916.253318417335 (2020-Mar-07.75331842) | 8.4768e-05 | TDB |
period | 1654.760684175149 4.53 | 1.1069e-05 3.031e-08 | d yr |
n | .2175541173069686 | 1.4553e-09 | deg/d |
Q | 3.066500699623639 | 1.3675e-08 | au |
|
| | Orbit Determination Parameters
Additional Information
|